FW4454 Weather Reports


time (UTC)temp
C
wind
direction
speed
KPH
gust
KPH
rain 1hr
cm
rain 24hr
cm
rain mn
cm
humidity
%
barometer
mb
20260506045016 10 158 3.2 9.7 0.00 0.30 0.05 95 1004.6
20260506044016 10 158 3.2 8.0 0.00 0.30 0.05 95 1004.7
20260506043016 10 180 1.6 4.8 0.00 0.30 0.05 95 1004.7
20260506042018 10 203 1.6 4.8 0.03 0.30 0.05 95 1004.7
20260506041018 10 158 3.2 9.7 0.03 0.30 0.05 95 1004.7
20260506040016 10 135 3.2 8.0 0.03 0.30 0.05 95 1004.7
20260506035016 10 135 3.2 6.4 0.03 0.30 0.05 94 1004.6
20260506034016 10 135 1.6 4.8 0.03 0.30 0.05 94 1004.7
20260506033018 10 203 1.6 4.8 0.03 0.30 0.05 94 1004.7
20260506032016 10 203 1.6 3.2 0.00 0.28 0.03 94 1004.7
20260506031036 10 203 1.6 4.8 0.00 0.28 0.03 94 1004.7
20260506030016 10 0.0 4.8 0.00 0.28 0.03 93 1004.7
20260506025016 10 0.0 4.8 0.00 0.28 0.03 93 1004.7
20260506024016 10 0.0 0.0 0.00 0.28 0.03 93 1004.9
20260506023017 10 0.0 0.0 0.00 0.28 0.03 93 1004.8
20260506022016 10 0.0 0.0 0.00 0.28 0.03 93 1004.9
20260506021016 11 0.0 1.6 0.00 0.28 0.03 94 1005.0
20260506020016 11 0.0 3.2 0.00 0.28 0.03 94 1005.2
20260506015036 11 0.0 0.0 0.00 0.28 0.03 94 1005.3
20260506014016 11 0.0 1.6 0.00 0.28 0.03 94 1005.4
20260506013016 11 0.0 0.0 0.00 0.28 0.03 94 1005.5
20260506012016 11 0.0 3.2 0.00 0.28 0.03 94 1005.5
20260506011036 11 225 1.6 6.4 0.00 0.28 0.03 94 1005.6
20260506010016 11 225 1.6 6.4 0.00 0.28 0.03 94 1005.8
20260506005016 11 225 1.6 4.8 0.00 0.28 0.03 94 1005.7
20260506004017 11 225 1.6 6.4 0.00 0.28 0.03 94 1005.9
20260506003016 11 203 1.6 6.4 0.00 0.28 0.03 94 1005.9
20260506002017 11 0.0 4.8 0.00 0.28 0.03 94 1005.9
20260506001016 11 270 1.6 4.8 0.00 0.28 0.03 94 1005.9
20260506000016 11 248 1.6 4.8 0.00 0.28 0.03 94 1006.0
20260505235016 12 248 1.6 4.8 0.00 0.28 0.03 94 1006.1
20260505234016 12 248 3.2 8.0 0.00 0.28 0.03 94 1006.1
20260505233018 12 158 3.2 8.0 0.00 0.28 0.03 94 1006.0
20260505232015 12 0.0 0.0 0.00 0.28 0.03 94 1006.0
20260505231016 12 0.0 1.6 0.00 0.28 0.03 94 1006.2
20260505230016 12 0.0 1.6 0.03 0.28 0.03 94 1006.3
20260505225016 12 0.0 3.2 0.03 0.28 0.03 94 1006.3
20260505224016 12 0.0 0.0 0.03 0.28 0.03 94 1006.4
20260505223016 12 0.0 1.6 0.03 0.28 0.03 93 1006.4
20260505222058 12 0.0 0.0 0.03 0.28 0.03 93 1006.5
20260505221016 12 0.0 3.2 0.03 0.28 0.03 93 1006.6
20260505220016 12 0.0 0.0 0.00 0.25 0.25 93 1006.7
20260505215038 12 158 3.2 6.4 0.00 0.25 0.25 93 1006.7
20260505214016 12 158 1.6 3.2 0.00 0.25 0.25 93 1006.7
20260505213016 12 158 1.6 6.4 0.00 0.25 0.25 93 1006.7
20260505212016 12 0.0 0.0 0.00 0.25 0.25 93 1006.8
20260505211016 12 0.0 0.0 0.00 0.25 0.25 93 1006.7
20260505210016 12 0.0 1.6 0.00 0.25 0.25 93 1006.7
20260505205017 12 0.0 0.0 0.00 0.25 0.25 93 1006.7
20260505204016 12 0.0 0.0 0.00 0.25 0.25 93 1006.8
20260505203038 12 0.0 1.6 0.00 0.25 0.25 93 1006.8
20260505202016 12 180 1.6 4.8 0.00 0.25 0.25 93 1006.8
20260505201058 12 0.0 4.8 0.00 0.25 0.25 92 1006.7
20260505200016 12 0.0 0.0 0.00 0.25 0.25 92 1006.7
20260505195016 12 0.0 0.0 0.00 0.25 0.25 92 1006.7
20260505194017 12 0.0 0.0 0.00 0.25 0.25 92 1006.6
20260505193017 12 0.0 0.0 0.00 0.25 0.25 92 1006.5
20260505192017 12 0.0 0.0 0.00 0.25 0.25 92 1006.5
20260505191017 12 0.0 0.0 0.00 0.25 0.25 93 1006.4
20260505190019 12 0.0 0.0 0.00 0.25 0.25 93 1006.3
20260505185037 13 0.0 0.0 0.03 0.25 0.25 93 1006.2
20260505184017 13 0.0 0.0 0.03 0.25 0.25 93 1006.3
20260505183019 13 0.0 0.0 0.03 0.25 0.25 93 1006.3
20260505182017 13 0.0 0.0 0.03 0.25 0.25 93 1006.3
20260505181017 13 0.0 0.0 0.03 0.25 0.25 93 1006.3
20260505180019 13 0.0 0.0 0.05 0.25 0.25 93 1006.3
20260505175019 13 0.0 0.0 0.03 0.23 0.23 93 1006.3
20260505174018 13 0.0 0.0 0.03 0.23 0.23 93 1006.4
20260505173017 13 0.0 3.2 0.03 0.23 0.23 93 1006.4
20260505172017 13 0.0 1.6 0.03 0.23 0.23 93 1006.4
20260505171018 13 0.0 1.6 0.03 0.23 0.23 93 1006.4
20260505170017 13 203 1.6 4.8 0.00 0.23 0.23 92 1006.4
20260505165018 13 0.0 1.6 0.00 0.23 0.23 92 1006.5
20260505164017 13 180 1.6 4.8 0.00 0.23 0.23 92 1006.6
20260505163017 13 180 1.6 6.4 0.00 0.23 0.23 92 1006.6
20260505162058 13 158 3.2 6.4 0.00 0.23 0.23 92 1006.7
20260505161017 13 135 3.2 6.4 0.03 0.23 0.23 92 1006.7
20260505153017 13 158 3.2 8.0 0.05 0.23 0.23 91 1006.9
20260505152017 13 180 3.2 6.4 0.05 0.23 0.23 92 1006.9
20260505151017 13 225 1.6 4.8 0.05 0.20 0.20 91 1007.0
20260505125017 15 135 6.4 11.3 0.05 0.05 0.05 78 1007.6
20260505124039 16 135 3.2 6.4 0.00 0.00 0.00 72 1007.7
20260505123017 16 0.0 4.8 0.00 0.00 0.00 66 1007.7
20260505122037 17 203 1.6 6.4 0.00 0.00 0.00 66 1007.7
20260505121018 17 180 1.6 6.4 0.00 0.00 0.00 64 1007.8
20260505120017 17 203 1.6 6.4 0.00 0.00 0.00 65 1007.9
20260505115017 17 158 3.2 8.0 0.00 0.00 0.00 65 1008.0
20260505114017 17 158 3.2 9.7 0.00 0.00 0.00 65 1008.1
20260505113018 17 158 4.8 9.7 0.00 0.00 0.00 66 1008.2
20260505112017 17 135 3.2 8.0 0.00 0.00 0.00 69 1008.3
20260505111017 16 135 4.8 11.3 0.00 0.00 0.00 69 1008.2
20260505102019 17 203 1.6 4.8 0.00 0.00 0.00 70 1008.6
20260505101037 16 0.0 3.2 0.00 0.00 0.00 70 1008.6
20260505100017 16 90 3.2 6.4 0.00 0.00 0.00 69 1008.6
20260505095017 17 113 3.2 8.0 0.00 0.00 0.00 68 1008.6
20260505094017 17 90 4.8 12.9 0.00 0.00 0.00 65 1008.8
20260505093018 17 68 3.2 8.0 0.00 0.00 0.00 65 1008.8
20260505092017 16 23 3.2 6.4 0.00 0.00 0.00 67 1008.9
20260505091016 16 338 1.6 4.8 0.00 0.00 0.00 71 1009.0
20260505090038 16 0.0 3.2 0.00 0.00 0.00 70 1008.9
20260505085018 16 270 1.6 4.8 0.00 0.00 0.00 72 1009.0
20260505084037 16 225 3.2 4.8 0.00 0.00 0.00 71 1009.0
20260505083016 15 0.0 3.2 0.00 0.00 0.00 76 1009.1
20260505082018 15 0.0 1.6 0.00 0.00 0.00 77 1009.1
20260505081018 15 225 1.6 3.2 0.00 0.00 0.00 78 1009.3
20260505080100 15 0.0 3.2 0.00 0.00 0.00 80 1009.2
20260505075016 14 113 1.6 3.2 0.00 0.00 0.00 81 1009.2
20260505074016 14 0.0 0.0 0.00 0.00 0.00 81 1009.3
20260505073017 13 0.0 0.0 0.00 0.00 0.00 82 1009.4
20260505072037 13 0.0 0.0 0.00 0.00 0.00 83 1009.5
20260505071016 12 0.0 0.0 0.00 0.00 0.00 89 1009.5
20260505070016 13 0.0 1.6 0.00 0.00 0.00 89 1009.5
20260505065038 12 0.0 1.6 0.00 0.00 0.00 89 1009.5
20260505064016 12 0.0 0.0 0.00 0.00 0.00 91 1009.5
20260505063016 12 0.0 0.0 0.00 0.00 0.00 91 1009.5
20260505062058 12 0.0 1.6 0.00 0.00 0.00 92 1009.6
20260505061018 12 0.0 0.0 0.00 0.00 0.00 92 1009.6
20260505060036 12 0.0 0.0 0.00 0.00 0.00 92 1009.6
20260505055016 12 0.0 0.0 0.00 0.00 0.00 92 1009.5
20260505054036 11 0.0 0.0 0.00 0.00 0.00 93 1009.4
20260505053018 11 0.0 0.0 0.00 0.00 0.00 92 1009.4
20260505052016 11 0.0 0.0 0.00 0.00 0.00 92 1009.4
20260505051016 11 0.0 0.0 0.00 0.00 0.00 92 1009.4